Time,TemperatureF,DewpointF,PressureIn,WindDirection,WindDirectionDegrees,WindSpeedMPH,WindSpeedGustMPH,Humidity,HourlyPrecipIn,Conditions,Clouds,dailyrainin,SoftwareType,DateUTC
2013-04-22 00:08:00,32.1,25.0,30.66,NNW,334,0.0,1.0,76,0.00,,,0.00,weatherlink.com 1.10,2013-04-22 04:08:00,
2013-04-22 00:23:00,31.8,25.0,30.67,NNW,335,0.0,0.0,77,0.00,,,0.00,weatherlink.com 1.10,2013-04-22 04:23:00,
2013-04-22 00:38:00,31.8,26.0,30.67,NNW,334,0.0,1.0,78,0.00,,,0.00,weatherlink.com 1.10,2013-04-22 04:38:00,
2013-04-22 00:53:00,32.0,26.0,30.67,NNW,335,1.0,1.0,79,0.00,,,0.00,weatherlink.com 1.10,2013-04-22 04:53:00,
2013-04-22 01:08:00,31.7,26.0,30.67,NNW,335,0.0,1.0,80,0.00,,,0.00,weatherlink.com 1.10,2013-04-22 05:08:00,
2013-04-22 01:23:00,31.4,26.0,30.67,West,274,0.0,1.0,80,0.00,,,0.00,weatherlink.com 1.10,2013-04-22 05:23:00,
2013-04-22 01:38:00,31.5,26.0,30.68,West,274,1.0,1.0,81,0.00,,,0.00,weatherlink.com 1.10,2013-04-22 05:38:00,
2013-04-22 01:53:00,32.5,26.0,30.68,West,274,0.0,1.0,77,0.00,,,0.00,weatherlink.com 1.10,2013-04-22 05:53:00,
2013-04-22 02:08:00,33.0,24.0,30.68,West,274,0.0,0.0,70,0.00,,,0.00,weatherlink.com 1.10,2013-04-22 06:08:00,
2013-04-22 02:23:00,33.7,23.0,30.68,West,274,0.0,1.0,65,0.00,,,0.00,weatherlink.com 1.10,2013-04-22 06:23:00,
2013-04-22 02:38:00,34.5,21.0,30.68,NW,317,0.0,1.0,59,0.00,,,0.00,weatherlink.com 1.10,2013-04-22 06:38:00,
2013-04-22 02:53:00,34.5,21.0,30.68,North,11,0.0,1.0,58,0.00,,,0.00,weatherlink.com 1.10,2013-04-22 06:53:00,
2013-04-22 03:08:00,33.9,20.0,30.68,North,5,0.0,1.0,56,0.00,,,0.00,weatherlink.com 1.10,2013-04-22 07:08:00,
2013-04-22 03:23:00,34.5,19.0,30.68,North,6,1.0,1.0,54,0.00,,,0.00,weatherlink.com 1.10,2013-04-22 07:23:00,
2013-04-22 03:38:00,35.0,19.0,30.68,NE,36,1.0,2.0,52,0.00,,,0.00,weatherlink.com 1.10,2013-04-22 07:38:00,
2013-04-22 03:53:00,34.8,18.0,30.69,NNE,33,1.0,2.0,51,0.00,,,0.00,weatherlink.com 1.10,2013-04-22 07:53:00,
2013-04-22 04:08:00,34.5,18.0,30.69,NNE,31,1.0,2.0,51,0.00,,,0.00,weatherlink.com 1.10,2013-04-22 08:08:00,
2013-04-22 04:23:00,34.2,18.0,30.70,NNE,26,1.0,2.0,51,0.00,,,0.00,weatherlink.com 1.10,2013-04-22 08:23:00,
2013-04-22 04:38:00,33.8,17.0,30.70,NNE,20,1.0,2.0,51,0.00,,,0.00,weatherlink.com 1.10,2013-04-22 08:38:00,
2013-04-22 04:53:00,33.6,17.0,30.70,NNE,32,1.0,1.0,51,0.00,,,0.00,weatherlink.com 1.10,2013-04-22 08:53:00,
2013-04-22 05:08:00,33.5,17.0,30.70,NE,43,1.0,2.0,51,0.00,,,0.00,weatherlink.com 1.10,2013-04-22 09:08:00,
2013-04-22 05:23:00,33.4,17.0,30.70,NE,34,1.0,2.0,51,0.00,,,0.00,weatherlink.com 1.10,2013-04-22 09:23:00,
2013-04-22 05:38:00,33.0,17.0,30.71,North,8,2.0,2.0,51,0.00,,,0.00,weatherlink.com 1.10,2013-04-22 09:38:00,
2013-04-22 05:53:00,32.8,16.0,30.71,North,11,1.0,2.0,51,0.00,,,0.00,weatherlink.com 1.10,2013-04-22 09:53:00,
2013-04-22 06:08:00,32.3,17.0,30.72,North,11,1.0,2.0,53,0.00,,,0.00,weatherlink.com 1.10,2013-04-22 10:08:00,
2013-04-22 06:23:00,32.4,16.0,30.72,NNE,22,1.0,1.0,52,0.00,,,0.00,weatherlink.com 1.10,2013-04-22 10:23:00,
2013-04-22 06:38:00,32.7,16.0,30.72,NE,49,0.0,2.0,51,0.00,,,0.00,weatherlink.com 1.10,2013-04-22 10:38:00,
2013-04-22 06:53:00,33.2,18.0,30.73,NNE,19,0.0,1.0,54,0.00,,,0.00,weatherlink.com 1.10,2013-04-22 10:53:00,
2013-04-22 07:08:00,33.6,17.0,30.73,NNE,25,1.0,2.0,51,0.00,,,0.00,weatherlink.com 1.10,2013-04-22 11:08:00,
2013-04-22 07:23:00,34.1,18.0,30.73,NNE,22,1.0,2.0,52,0.00,,,0.00,weatherlink.com 1.10,2013-04-22 11:23:00,
2013-04-22 07:38:00,34.9,19.0,30.73,NE,34,1.0,1.0,53,0.00,,,0.00,weatherlink.com 1.10,2013-04-22 11:38:00,
2013-04-22 07:53:00,35.8,19.0,30.73,ENE,71,2.0,2.0,51,0.00,,,0.00,weatherlink.com 1.10,2013-04-22 11:53:00,
2013-04-22 08:08:00,36.9,20.0,30.73,ENE,58,3.0,3.0,50,0.00,,,0.00,weatherlink.com 1.10,2013-04-22 12:08:00,
2013-04-22 08:23:00,37.9,21.0,30.73,ESE,113,2.0,3.0,50,0.00,,,0.00,weatherlink.com 1.10,2013-04-22 12:23:00,
2013-04-22 08:38:00,38.8,23.0,30.74,East,80,1.0,4.0,53,0.00,,,0.00,weatherlink.com 1.10,2013-04-22 12:38:00,
2013-04-22 08:53:00,39.9,24.0,30.73,SE,132,3.0,6.0,53,0.00,,,0.00,weatherlink.com 1.10,2013-04-22 12:53:00,
2013-04-22 09:08:00,40.7,25.0,30.73,SE,132,2.0,7.0,53,0.00,,,0.00,weatherlink.com 1.10,2013-04-22 13:08:00,
2013-04-22 09:23:00,41.4,25.0,30.74,East,98,2.0,8.0,52,0.00,,,0.00,weatherlink.com 1.10,2013-04-22 13:23:00,
2013-04-22 09:38:00,42.9,26.0,30.74,SE,127,6.0,6.0,52,0.00,,,0.00,weatherlink.com 1.10,2013-04-22 13:38:00,
2013-04-22 09:53:00,42.8,26.0,30.74,ESE,122,4.0,7.0,51,0.00,,,0.00,weatherlink.com 1.10,2013-04-22 13:53:00,
2013-04-22 10:08:00,43.8,26.0,30.75,SE,142,5.0,11.0,49,0.00,,,0.00,weatherlink.com 1.10,2013-04-22 14:08:00,
2013-04-22 10:23:00,44.9,27.0,30.75,East,86,1.0,7.0,49,0.00,,,0.00,weatherlink.com 1.10,2013-04-22 14:23:00,
2013-04-22 10:38:00,45.7,25.0,30.75,ESE,119,3.0,8.0,44,0.00,,,0.00,weatherlink.com 1.10,2013-04-22 14:38:00,
2013-04-22 10:53:00,46.2,26.0,30.75,East,86,2.0,6.0,46,0.00,,,0.00,weatherlink.com 1.10,2013-04-22 14:53:00,
2013-04-22 11:08:00,45.7,27.0,30.75,ESE,113,3.0,6.0,49,0.00,,,0.00,weatherlink.com 1.10,2013-04-22 15:08:00,
2013-04-22 11:23:00,48.1,28.0,30.74,SE,126,5.0,6.0,45,0.00,,,0.00,weatherlink.com 1.10,2013-04-22 15:23:00,
2013-04-22 11:38:00,49.3,27.0,30.73,ESE,105,4.0,8.0,42,0.00,,,0.00,weatherlink.com 1.10,2013-04-22 15:38:00,
2013-04-22 11:53:00,48.8,25.0,30.72,SE,127,4.0,7.0,39,0.00,,,0.00,weatherlink.com 1.10,2013-04-22 15:53:00,
2013-04-22 12:08:00,48.8,25.0,30.71,SW,231,2.0,7.0,39,0.00,,,0.00,weatherlink.com 1.10,2013-04-22 16:08:00,
2013-04-22 12:23:00,49.0,25.0,30.71,South,173,4.0,8.0,39,0.00,,,0.00,weatherlink.com 1.10,2013-04-22 16:23:00,
2013-04-22 12:38:00,49.1,25.0,30.70,ESE,122,5.0,8.0,39,0.00,,,0.00,weatherlink.com 1.10,2013-04-22 16:38:00,
2013-04-22 12:53:00,49.1,23.0,30.69,SE,127,6.0,7.0,36,0.00,,,0.00,weatherlink.com 1.10,2013-04-22 16:53:00,
2013-04-22 13:08:00,49.0,24.0,30.69,ESE,105,3.0,9.0,38,0.00,,,0.00,weatherlink.com 1.10,2013-04-22 17:08:00,
2013-04-22 13:23:00,49.6,27.0,30.70,SE,134,4.0,7.0,41,0.00,,,0.00,weatherlink.com 1.10,2013-04-22 17:23:00,
2013-04-22 13:38:00,49.8,24.0,30.70,ESE,114,6.0,9.0,37,0.00,,,0.00,weatherlink.com 1.10,2013-04-22 17:38:00,
2013-04-22 13:53:00,49.8,24.0,30.69,ESE,122,3.0,11.0,36,0.00,,,0.00,weatherlink.com 1.10,2013-04-22 17:53:00,
2013-04-22 14:08:00,49.4,23.0,30.69,ESE,119,4.0,7.0,36,0.00,,,0.00,weatherlink.com 1.10,2013-04-22 18:08:00,
2013-04-22 14:23:00,49.5,22.0,30.68,ESE,122,5.0,7.0,34,0.00,,,0.00,weatherlink.com 1.10,2013-04-22 18:23:00,
2013-04-22 14:38:00,49.1,22.0,30.67,SE,141,2.0,8.0,35,0.00,,,0.00,weatherlink.com 1.10,2013-04-22 18:38:00,
2013-04-22 14:53:00,48.8,22.0,30.66,SE,139,3.0,9.0,35,0.00,,,0.00,weatherlink.com 1.10,2013-04-22 18:53:00,
2013-04-22 15:08:00,48.8,23.0,30.66,ESE,107,2.0,9.0,36,0.00,,,0.00,weatherlink.com 1.10,2013-04-22 19:08:00,
2013-04-22 15:23:00,48.4,22.0,30.65,ESE,105,6.0,7.0,35,0.00,,,0.00,weatherlink.com 1.10,2013-04-22 19:23:00,
2013-04-22 15:38:00,48.2,21.0,30.65,ESE,111,6.0,8.0,34,0.00,,,0.00,weatherlink.com 1.10,2013-04-22 19:38:00,
2013-04-22 15:53:00,48.1,21.0,30.64,ESE,108,2.0,7.0,35,0.00,,,0.00,weatherlink.com 1.10,2013-04-22 19:53:00,
2013-04-22 16:09:00,48.1,22.0,30.64,SE,136,6.0,6.0,36,0.00,,,0.00,weatherlink.com 1.10,2013-04-22 20:09:00,
2013-04-22 16:24:00,48.1,22.0,30.64,East,94,3.0,7.0,36,0.00,,,0.00,weatherlink.com 1.10,2013-04-22 20:24:00,
2013-04-22 16:39:00,47.1,18.0,30.64,East,96,4.0,8.0,31,0.00,,,0.00,weatherlink.com 1.10,2013-04-22 20:39:00,
2013-04-22 16:54:00,46.2,18.0,30.64,SE,140,2.0,7.0,32,0.00,,,0.00,weatherlink.com 1.10,2013-04-22 20:54:00,
2013-04-22 17:09:00,45.7,18.0,30.63,East,101,2.0,6.0,33,0.00,,,0.00,weatherlink.com 1.10,2013-04-22 21:09:00,
2013-04-22 17:24:00,45.2,21.0,30.64,SE,127,3.0,7.0,38,0.00,,,0.00,weatherlink.com 1.10,2013-04-22 21:24:00,
2013-04-22 17:39:00,44.9,23.0,30.63,SE,134,5.0,7.0,43,0.00,,,0.00,weatherlink.com 1.10,2013-04-22 21:39:00,
2013-04-22 17:54:00,44.0,24.0,30.64,SW,214,1.0,7.0,45,0.00,,,0.00,weatherlink.com 1.10,2013-04-22 21:54:00,
2013-04-22 18:09:00,43.2,25.0,30.64,SE,143,2.0,6.0,49,0.00,,,0.00,weatherlink.com 1.10,2013-04-22 22:09:00,
2013-04-22 18:24:00,42.3,27.0,30.64,ESE,121,3.0,7.0,54,0.00,,,0.00,weatherlink.com 1.10,2013-04-22 22:24:00,
2013-04-22 18:39:00,41.6,28.0,30.64,ESE,113,3.0,8.0,58,0.00,,,0.00,weatherlink.com 1.10,2013-04-22 22:39:00,
2013-04-22 18:54:00,41.1,28.0,30.64,SSW,207,1.0,6.0,61,0.00,,,0.00,weatherlink.com 1.10,2013-04-22 22:54:00,
2013-04-22 19:09:00,40.6,30.0,30.64,SE,134,3.0,5.0,65,0.00,,,0.00,weatherlink.com 1.10,2013-04-22 23:09:00,
2013-04-22 19:24:00,40.0,30.0,30.65,ESE,113,2.0,5.0,67,0.00,,,0.00,weatherlink.com 1.10,2013-04-22 23:24:00,
2013-04-22 19:39:00,39.5,30.0,30.65,ESE,105,2.0,5.0,69,0.00,,,0.00,weatherlink.com 1.10,2013-04-22 23:39:00,
2013-04-22 19:54:00,38.9,31.0,30.65,ESE,121,1.0,3.0,72,0.00,,,0.00,weatherlink.com 1.10,2013-04-22 23:54:00,
2013-04-22 20:09:00,38.1,31.0,30.65,ESE,120,1.0,2.0,75,0.00,,,0.00,weatherlink.com 1.10,2013-04-23 00:09:00,
2013-04-22 20:24:00,37.8,31.0,30.65,ESE,113,3.0,3.0,77,0.00,,,0.00,weatherlink.com 1.10,2013-04-23 00:24:00,
2013-04-22 20:39:00,37.5,32.0,30.65,ESE,114,1.0,3.0,79,0.00,,,0.00,weatherlink.com 1.10,2013-04-23 00:39:00,
2013-04-22 20:54:00,37.1,31.0,30.65,SE,135,2.0,2.0,80,0.00,,,0.00,weatherlink.com 1.10,2013-04-23 00:54:00,
2013-04-22 21:09:00,36.8,32.0,30.65,WNW,285,1.0,2.0,81,0.00,,,0.00,weatherlink.com 1.10,2013-04-23 01:09:00,
2013-04-22 21:24:00,36.4,32.0,30.65,ESE,109,1.0,2.0,83,0.00,,,0.00,weatherlink.com 1.10,2013-04-23 01:24:00,
2013-04-22 21:39:00,36.1,31.0,30.65,East,100,1.0,3.0,83,0.00,,,0.00,weatherlink.com 1.10,2013-04-23 01:39:00,
2013-04-22 21:54:00,35.8,31.0,30.64,East,96,1.0,2.0,84,0.00,,,0.00,weatherlink.com 1.10,2013-04-23 01:54:00,
2013-04-22 22:09:00,35.4,31.0,30.64,East,96,1.0,1.0,85,0.00,,,0.00,weatherlink.com 1.10,2013-04-23 02:09:00,
2013-04-22 22:24:00,34.8,31.0,30.64,East,95,1.0,1.0,87,0.00,,,0.00,weatherlink.com 1.10,2013-04-23 02:24:00,
2013-04-22 22:39:00,34.5,31.0,30.63,East,96,1.0,1.0,87,0.00,,,0.00,weatherlink.com 1.10,2013-04-23 02:39:00,
2013-04-22 22:54:00,33.8,31.0,30.62,East,96,0.0,1.0,88,0.00,,,0.00,weatherlink.com 1.10,2013-04-23 02:54:00,
2013-04-22 23:09:00,33.3,30.0,30.62,East,96,0.0,1.0,89,0.00,,,0.00,weatherlink.com 1.10,2013-04-23 03:09:00,
2013-04-22 23:24:00,32.9,31.0,30.62,East,96,0.0,1.0,91,0.00,,,0.00,weatherlink.com 1.10,2013-04-23 03:24:00,
2013-04-22 23:39:00,32.7,30.0,30.61,East,96,0.0,1.0,91,0.00,,,0.00,weatherlink.com 1.10,2013-04-23 03:39:00,
2013-04-22 23:54:00,32.3,30.0,30.61,East,96,0.0,0.0,91,0.00,,,0.00,weatherlink.com 1.10,2013-04-23 03:54:00,